PGT2DK EKCH-LTFJ

Flight info

Callsign PGT2DK
Flight time 2h 42m
Altitude 37000
Route SALLO M44 KOGIM DCT USEDU M602 BINKA DCT EKBUT DCT OLUMA Y210 PEKOT L616 DESEN DCT OGDAS DCT NIDOK DCT LITKU DCT BUDOP DCT EKNAB DCT NAVOD DCT XANEX DCT ETOPO DCT ADORU UM19 IBODU
Aircraft A21N/M-SDE2E3FGHIRWXY/LB1

Departure

Time 2026-05-06 18:25
Airport Copenhagen Kastrup Airport (EKCH)

Arrival

Time 2026-05-06 21:08
Airport Istanbul Sabiha Gökçen International Airport (LTFJ)
Time Latitude Longitude Altitude Speed Heading
2026-05-06 17:48 55.62558 12.64510 20 ft 0 kts 16°
2026-05-06 18:02 55.62545 12.64503 21 ft 2 kts 22°
2026-05-06 18:02 55.62530 12.64489 21 ft 2 kts 34°
2026-05-06 18:03 55.62518 12.64469 23 ft 2 kts 60°
2026-05-06 18:03 55.62514 12.64442 22 ft 2 kts 96°
2026-05-06 18:03 55.62518 12.64417 22 ft 1 kts 117°
2026-05-06 18:03 55.62520 12.64412 22 ft 0 kts 121°
2026-05-06 18:11 55.62515 12.64425 21 ft 4 kts 123°
2026-05-06 18:11 55.62487 12.64499 20 ft 10 kts 123°
2026-05-06 18:11 55.62439 12.64629 20 ft 15 kts 123°
2026-05-06 18:11 55.62371 12.64772 20 ft 15 kts 159°
2026-05-06 18:12 55.62267 12.64791 20 ft 15 kts 175°
2026-05-06 18:12 55.62174 12.64733 22 ft 14 kts 214°
2026-05-06 18:12 55.62090 12.64635 20 ft 15 kts 213°
2026-05-06 18:12 55.61999 12.64534 20 ft 16 kts 207°
2026-05-06 18:13 55.61892 12.64510 22 ft 16 kts 171°
2026-05-06 18:13 55.61795 12.64541 20 ft 8 kts 169°
2026-05-06 18:13 55.61779 12.64546 20 ft 0 kts 169°
2026-05-06 18:14 55.61765 12.64551 20 ft 5 kts 169°
2026-05-06 18:14 55.61711 12.64568 20 ft 11 kts 171°
2026-05-06 18:14 55.61629 12.64514 21 ft 16 kts 213°
2026-05-06 18:15 55.61523 12.64392 20 ft 20 kts 213°
2026-05-06 18:15 55.61399 12.64249 20 ft 21 kts 213°
2026-05-06 18:15 55.61274 12.64106 20 ft 21 kts 213°
2026-05-06 18:15 55.61146 12.63960 20 ft 21 kts 213°
2026-05-06 18:16 55.61021 12.63815 20 ft 22 kts 213°
2026-05-06 18:16 55.60894 12.63670 20 ft 22 kts 213°
2026-05-06 18:16 55.60794 12.63594 22 ft 13 kts 162°
2026-05-06 18:16 55.60738 12.63684 20 ft 0 kts 131°
2026-05-06 18:20 55.60723 12.63715 20 ft 6 kts 131°
2026-05-06 18:20 55.60685 12.63802 21 ft 10 kts 112°
2026-05-06 18:21 55.60703 12.63912 22 ft 10 kts 48°
2026-05-06 18:21 55.60722 12.63943 22 ft 0 kts 41°
2026-05-06 18:24 55.60775 12.64026 27 ft 37 kts 41°
2026-05-06 18:25 55.61235 12.64739 22 ft 114 kts 41°
2026-05-06 18:25 55.61956 12.65860 28 ft 173 kts 41°
2026-05-06 18:25 55.62912 12.67372 525 ft 175 kts 44°
2026-05-06 18:25 55.63514 12.68311 1185 ft 165 kts 46°
2026-05-06 18:26 55.64686 12.70102 2191 ft 173 kts 44°
2026-05-06 18:26 55.65680 12.71610 2459 ft 202 kts 43°
2026-05-06 18:26 55.66842 12.73351 2695 ft 232 kts 43°
2026-05-06 18:26 55.68138 12.75286 3235 ft 251 kts 43°
2026-05-06 18:27 55.69448 12.77358 4145 ft 253 kts 50°
2026-05-06 18:27 55.70372 12.79982 5075 ft 253 kts 71°
2026-05-06 18:27 55.70853 12.83000 6006 ft 256 kts 79°
2026-05-06 18:27 55.70866 12.86179 6881 ft 263 kts 100°
2026-05-06 18:28 55.70096 12.89150 7647 ft 274 kts 129°
2026-05-06 18:28 55.68495 12.91154 8514 ft 281 kts 156°
2026-05-06 18:28 55.66686 12.92376 9444 ft 285 kts 161°
2026-05-06 18:28 55.64766 12.93525 10292 ft 292 kts 162°
2026-05-06 18:29 55.62763 12.94725 10667 ft 316 kts 162°
2026-05-06 18:29 55.60581 12.96058 11002 ft 339 kts 161°
2026-05-06 18:29 55.58280 12.97483 11316 ft 362 kts 162°
2026-05-06 18:29 55.55849 12.98997 11762 ft 377 kts 161°
2026-05-06 18:30 55.53325 13.00577 12474 ft 385 kts 162°
2026-05-06 18:30 55.50800 13.02156 13180 ft 391 kts 162°
2026-05-06 18:30 55.49061 13.03242 13767 ft 392 kts 162°
2026-05-06 18:30 55.46495 13.04846 14485 ft 396 kts 162°
2026-05-06 18:31 55.43881 13.06479 15255 ft 398 kts 162°
2026-05-06 18:31 55.41261 13.08113 15974 ft 401 kts 162°
2026-05-06 18:31 55.38617 13.09760 16682 ft 405 kts 163°
2026-05-06 18:31 55.35909 13.11443 17383 ft 408 kts 163°
2026-05-06 18:32 55.33222 13.13123 18055 ft 411 kts 161°
2026-05-06 18:32 55.30495 13.15072 18637 ft 416 kts 160°
2026-05-06 18:32 55.27779 13.17055 19164 ft 420 kts 160°
2026-05-06 18:32 55.25162 13.18996 19670 ft 424 kts 159°
2026-05-06 18:33 55.22355 13.21100 20200 ft 428 kts 159°
2026-05-06 18:33 55.19618 13.23165 20721 ft 431 kts 159°
2026-05-06 18:33 55.16884 13.25231 21230 ft 435 kts 159°
2026-05-06 18:33 55.13998 13.27410 21758 ft 438 kts 159°
2026-05-06 18:34 55.11248 13.29483 22244 ft 442 kts 160°
2026-05-06 18:34 55.08411 13.31616 22762 ft 445 kts 160°
2026-05-06 18:34 55.05553 13.33760 23255 ft 449 kts 160°
2026-05-06 18:34 55.02663 13.35923 23704 ft 452 kts 160°
2026-05-06 18:35 54.99784 13.38076 24137 ft 453 kts 160°
2026-05-06 18:35 54.96853 13.40264 24597 ft 455 kts 159°
2026-05-06 18:35 54.93940 13.42434 25043 ft 456 kts 159°
2026-05-06 18:35 54.91018 13.44608 25458 ft 457 kts 159°
2026-05-06 18:36 54.88083 13.46788 25873 ft 459 kts 159°
2026-05-06 18:36 54.85136 13.48973 26312 ft 459 kts 159°
2026-05-06 18:36 54.82220 13.51133 26901 ft 455 kts 159°
2026-05-06 18:36 54.79318 13.53279 27517 ft 451 kts 159°
2026-05-06 18:37 54.76443 13.55402 28076 ft 448 kts 159°
2026-05-06 18:37 54.73585 13.57509 28730 ft 443 kts 159°
2026-05-06 18:37 54.70765 13.59583 29277 ft 440 kts 159°
2026-05-06 18:37 54.67950 13.61650 29758 ft 438 kts 159°
2026-05-06 18:38 54.65152 13.63702 30149 ft 437 kts 159°
2026-05-06 18:38 54.62352 13.65751 30484 ft 437 kts 159°
2026-05-06 18:38 54.59553 13.67798 30815 ft 437 kts 159°
2026-05-06 18:38 54.56708 13.69874 31129 ft 437 kts 159°
2026-05-06 18:39 54.53912 13.71912 31410 ft 437 kts 160°
2026-05-06 18:39 54.51099 13.73958 31709 ft 437 kts 160°
2026-05-06 18:39 54.48303 13.75990 32021 ft 437 kts 160°
2026-05-06 18:40 54.42687 13.80064 32712 ft 434 kts 161°
2026-05-06 18:40 54.39931 13.82058 32970 ft 434 kts 161°
2026-05-06 18:40 54.37124 13.84086 33225 ft 434 kts 161°
2026-05-06 18:40 54.34332 13.86099 33479 ft 434 kts 161°
2026-05-06 18:41 54.31548 13.88104 33735 ft 434 kts 161°
2026-05-06 18:41 54.28764 13.90106 33973 ft 434 kts 161°
2026-05-06 18:41 54.25974 13.92111 34186 ft 434 kts 161°
2026-05-06 18:41 54.23164 13.94126 34331 ft 435 kts 162°
2026-05-06 18:42 54.20372 13.96126 34502 ft 435 kts 162°
2026-05-06 18:42 54.17580 13.98122 34693 ft 435 kts 162°
2026-05-06 18:42 54.14797 14.00110 34924 ft 434 kts 162°
2026-05-06 18:42 54.12005 14.02101 35085 ft 434 kts 162°
2026-05-06 18:43 54.09210 14.04091 35237 ft 435 kts 162°
2026-05-06 18:43 54.06415 14.06076 35379 ft 436 kts 162°
2026-05-06 18:43 54.03576 14.08091 35521 ft 436 kts 162°
2026-05-06 18:43 54.00789 14.10067 35661 ft 436 kts 162°
2026-05-06 18:44 53.97929 14.12091 35824 ft 437 kts 162°
2026-05-06 18:44 53.95158 14.14049 35964 ft 437 kts 162°
2026-05-06 18:44 53.92354 14.16028 36109 ft 437 kts 162°
2026-05-06 18:44 53.89506 14.18036 36273 ft 437 kts 162°
2026-05-06 18:45 53.86698 14.20012 36466 ft 436 kts 162°
2026-05-06 18:45 53.83855 14.22010 36596 ft 436 kts 162°
2026-05-06 18:45 53.81807 14.23447 36677 ft 437 kts 162°
2026-05-06 18:46 53.76194 14.27392 36870 ft 435 kts 161°
2026-05-06 18:46 53.70707 14.31742 36884 ft 430 kts 159°
2026-05-06 18:47 53.65350 14.36269 36880 ft 429 kts 158°
2026-05-06 18:47 53.59924 14.40833 36870 ft 428 kts 159°
2026-05-06 18:48 53.54605 14.45246 36864 ft 427 kts 159°
2026-05-06 18:48 53.49235 14.49665 36864 ft 426 kts 159°
2026-05-06 18:49 53.43901 14.54038 36860 ft 426 kts 159°
2026-05-06 18:49 53.38564 14.58405 36864 ft 426 kts 159°
2026-05-06 18:50 53.33244 14.62747 36856 ft 425 kts 159°
2026-05-06 18:50 53.27933 14.67070 36860 ft 424 kts 159°
2026-05-06 18:51 53.22617 14.71383 36853 ft 424 kts 159°
2026-05-06 18:51 53.17277 14.75704 36853 ft 424 kts 159°
2026-05-06 18:52 53.11978 14.79981 36853 ft 424 kts 159°
2026-05-06 18:52 53.06656 14.84264 36851 ft 424 kts 159°
2026-05-06 18:53 53.01343 14.88529 36851 ft 424 kts 159°
2026-05-06 18:53 52.96009 14.92798 36847 ft 424 kts 159°
2026-05-06 18:54 52.90702 14.97035 36842 ft 424 kts 159°
2026-05-06 18:54 52.85399 15.01257 36840 ft 423 kts 159°
2026-05-06 18:55 52.80094 15.05471 36840 ft 423 kts 159°
2026-05-06 18:55 52.74777 15.09685 36838 ft 425 kts 160°
2026-05-06 18:56 52.69405 15.13924 36836 ft 431 kts 160°
2026-05-06 18:56 52.63945 15.18223 36819 ft 438 kts 160°
2026-05-06 18:57 52.58352 15.22618 36828 ft 444 kts 160°
2026-05-06 18:57 52.52767 15.26996 36835 ft 449 kts 160°
2026-05-06 18:58 52.47094 15.31434 36830 ft 448 kts 160°
2026-05-06 18:58 52.41468 15.35822 36831 ft 448 kts 160°
2026-05-06 18:59 52.35827 15.40206 36825 ft 448 kts 160°
2026-05-06 18:59 52.30176 15.44583 36827 ft 448 kts 160°
2026-05-06 19:00 52.24543 15.48935 36799 ft 448 kts 160°
2026-05-06 19:00 52.18904 15.53280 36826 ft 446 kts 160°
2026-05-06 19:01 52.13271 15.57608 36829 ft 446 kts 160°
2026-05-06 19:01 52.07677 15.61892 36828 ft 446 kts 160°
2026-05-06 19:02 52.02026 15.66208 36815 ft 446 kts 160°
2026-05-06 19:02 51.96410 15.70486 36812 ft 445 kts 160°
2026-05-06 19:03 51.91712 15.74066 36808 ft 445 kts 159°
2026-05-06 19:03 51.86396 15.79404 36803 ft 451 kts 151°
2026-05-06 19:04 51.81241 15.85296 36815 ft 455 kts 150°
2026-05-06 19:04 51.76046 15.91368 36810 ft 455 kts 150°
2026-05-06 19:05 51.70869 15.97389 36809 ft 455 kts 150°
2026-05-06 19:05 51.65725 16.03326 36801 ft 455 kts 150°
2026-05-06 19:06 51.60515 16.09308 36805 ft 454 kts 150°
2026-05-06 19:06 51.55373 16.15194 36801 ft 454 kts 150°
2026-05-06 19:07 51.50221 16.21074 36800 ft 454 kts 150°
2026-05-06 19:07 51.45026 16.26988 36799 ft 454 kts 150°
2026-05-06 19:08 51.39870 16.32843 36794 ft 454 kts 150°
2026-05-06 19:08 51.34672 16.38727 36794 ft 453 kts 151°
2026-05-06 19:09 51.29529 16.44535 36767 ft 452 kts 151°
2026-05-06 19:09 51.24408 16.50297 36790 ft 454 kts 151°
2026-05-06 19:10 51.19170 16.56175 36793 ft 454 kts 151°
2026-05-06 19:10 51.13968 16.61999 36788 ft 454 kts 151°
2026-05-06 19:11 51.08796 16.67773 36789 ft 454 kts 151°
2026-05-06 19:11 51.03576 16.73585 36782 ft 453 kts 151°
2026-05-06 19:12 50.98371 16.79363 36779 ft 453 kts 151°
2026-05-06 19:12 50.93118 16.85177 36775 ft 454 kts 151°
2026-05-06 19:13 50.87921 16.90913 36794 ft 454 kts 151°
2026-05-06 19:13 50.82739 16.96618 36788 ft 454 kts 152°
2026-05-06 19:14 50.77529 17.02338 36787 ft 453 kts 152°
2026-05-06 19:14 50.72369 17.07989 36752 ft 452 kts 152°
2026-05-06 19:15 50.67186 17.13646 36778 ft 454 kts 152°
2026-05-06 19:15 50.61960 17.19334 36776 ft 454 kts 152°
2026-05-06 19:16 50.57635 17.24032 36782 ft 454 kts 152°
2026-05-06 19:16 50.52388 17.29717 36782 ft 454 kts 152°
2026-05-06 19:17 50.47160 17.35367 36772 ft 452 kts 152°
2026-05-06 19:17 50.41956 17.40975 36770 ft 452 kts 152°
2026-05-06 19:18 50.36478 17.45714 36773 ft 444 kts 162°
2026-05-06 19:18 50.30806 17.49423 36771 ft 442 kts 165°
2026-05-06 19:19 50.25158 17.53312 36773 ft 446 kts 160°
2026-05-06 19:19 50.19611 17.57709 36770 ft 447 kts 159°
2026-05-06 19:20 50.14109 17.62207 36772 ft 447 kts 159°
2026-05-06 19:20 50.08600 17.66720 36774 ft 447 kts 158°
2026-05-06 19:21 50.03060 17.71234 36777 ft 448 kts 159°
2026-05-06 19:21 49.97554 17.75700 36770 ft 448 kts 159°
2026-05-06 19:22 49.92020 17.80173 36772 ft 450 kts 158°
2026-05-06 19:22 49.86447 17.84668 36773 ft 450 kts 158°
2026-05-06 19:23 49.80861 17.89162 36774 ft 450 kts 158°
2026-05-06 19:23 49.75319 17.93750 36772 ft 453 kts 153°
2026-05-06 19:24 49.70193 17.99564 36773 ft 458 kts 148°
2026-05-06 19:24 49.65173 18.05787 36774 ft 460 kts 147°
2026-05-06 19:25 49.60216 18.12033 36775 ft 460 kts 147°
2026-05-06 19:25 49.55252 18.18256 36775 ft 459 kts 147°
2026-05-06 19:26 49.50279 18.24447 36779 ft 460 kts 147°
2026-05-06 19:26 49.45297 18.30621 36789 ft 460 kts 147°
2026-05-06 19:27 49.40283 18.36817 36801 ft 461 kts 147°
2026-05-06 19:27 49.35282 18.42983 36821 ft 460 kts 146°
2026-05-06 19:28 49.30255 18.49165 36829 ft 460 kts 147°
2026-05-06 19:28 49.25260 18.55290 36829 ft 460 kts 146°
2026-05-06 19:29 49.20258 18.61407 36823 ft 461 kts 146°
2026-05-06 19:29 49.15207 18.67569 36824 ft 461 kts 146°
2026-05-06 19:30 49.10095 18.73788 36835 ft 460 kts 146°
2026-05-06 19:30 49.05056 18.79903 36839 ft 459 kts 146°
2026-05-06 19:31 49.00050 18.85959 36848 ft 459 kts 146°
2026-05-06 19:31 48.92538 18.95018 36858 ft 459 kts 146°
2026-05-06 19:32 48.87529 19.01040 36856 ft 459 kts 146°
2026-05-06 19:32 48.82510 19.07057 36865 ft 459 kts 146°
2026-05-06 19:33 48.78306 19.12084 36851 ft 459 kts 146°
2026-05-06 19:33 48.73272 19.18089 36880 ft 460 kts 146°
2026-05-06 19:34 48.68214 19.24110 36881 ft 460 kts 146°
2026-05-06 19:34 48.63178 19.30087 36890 ft 460 kts 146°
2026-05-06 19:35 48.58137 19.36056 36871 ft 460 kts 146°
2026-05-06 19:35 48.53093 19.42011 36878 ft 460 kts 146°
2026-05-06 19:36 48.48012 19.47995 36880 ft 460 kts 146°
2026-05-06 19:36 48.42961 19.53927 36883 ft 460 kts 146°
2026-05-06 19:37 48.37859 19.59904 36885 ft 460 kts 146°
2026-05-06 19:37 48.32805 19.65810 36885 ft 460 kts 146°
2026-05-06 19:38 48.27702 19.71756 36884 ft 460 kts 146°
2026-05-06 19:38 48.22600 19.77687 36883 ft 460 kts 146°
2026-05-06 19:39 48.17552 19.83541 36886 ft 459 kts 146°
2026-05-06 19:39 48.12497 19.89387 36884 ft 458 kts 146°
2026-05-06 19:40 48.07449 19.95210 36887 ft 458 kts 146°
2026-05-06 19:40 48.02386 20.01033 36888 ft 459 kts 146°
2026-05-06 19:41 47.97283 20.06890 36888 ft 459 kts 146°
2026-05-06 19:41 47.92206 20.12702 36889 ft 459 kts 146°
2026-05-06 19:42 47.87063 20.18575 36892 ft 458 kts 146°
2026-05-06 19:42 47.81985 20.24357 36879 ft 458 kts 146°
2026-05-06 19:43 47.76842 20.30199 36886 ft 460 kts 146°
2026-05-06 19:43 47.71736 20.35985 36886 ft 460 kts 146°
2026-05-06 19:44 47.66648 20.41738 36883 ft 460 kts 147°
2026-05-06 19:44 47.61561 20.47474 36887 ft 459 kts 147°
2026-05-06 19:45 47.56461 20.53209 36888 ft 460 kts 147°
2026-05-06 19:45 47.51337 20.58955 36889 ft 461 kts 147°
2026-05-06 19:46 47.46194 20.64710 36889 ft 461 kts 147°
2026-05-06 19:46 47.41938 20.69462 36890 ft 461 kts 147°
2026-05-06 19:47 47.36734 20.75259 36897 ft 461 kts 147°
2026-05-06 19:47 47.31616 20.80946 36902 ft 460 kts 147°
2026-05-06 19:48 47.26493 20.86623 36905 ft 460 kts 147°
2026-05-06 19:48 47.21372 20.92284 36890 ft 460 kts 147°
2026-05-06 19:49 47.16247 20.97935 36901 ft 460 kts 147°
2026-05-06 19:49 47.11121 21.03575 36872 ft 460 kts 147°
2026-05-06 19:50 47.05991 21.09203 36903 ft 461 kts 147°
2026-05-06 19:50 47.00845 21.14837 36902 ft 461 kts 147°
2026-05-06 19:51 46.95702 21.20453 36903 ft 461 kts 147°
2026-05-06 19:51 46.90522 21.26096 36909 ft 461 kts 147°
2026-05-06 19:52 46.85229 21.31847 36905 ft 462 kts 147°
2026-05-06 19:52 46.80018 21.37494 36916 ft 463 kts 147°
2026-05-06 19:53 46.74826 21.43108 36913 ft 464 kts 147°
2026-05-06 19:53 46.69641 21.48702 36917 ft 463 kts 147°
2026-05-06 19:54 46.64431 21.54286 36915 ft 463 kts 147°
2026-05-06 19:54 46.59142 21.59919 36924 ft 466 kts 147°
2026-05-06 19:55 46.53901 21.65490 36930 ft 465 kts 147°
2026-05-06 19:55 46.48685 21.71024 36930 ft 465 kts 147°
2026-05-06 19:56 46.43362 21.76658 36937 ft 464 kts 147°
2026-05-06 19:56 46.38138 21.82174 36941 ft 466 kts 147°
2026-05-06 19:57 46.32883 21.87707 36947 ft 468 kts 147°
2026-05-06 19:57 46.27634 21.93223 36944 ft 467 kts 147°
2026-05-06 19:58 46.22380 21.98732 36952 ft 466 kts 147°
2026-05-06 19:58 46.17097 22.04256 36954 ft 466 kts 147°
2026-05-06 19:59 46.11861 22.09716 36957 ft 469 kts 147°
2026-05-06 19:59 46.06566 22.15226 36963 ft 469 kts 147°
2026-05-06 20:00 46.01275 22.20723 36961 ft 468 kts 147°
2026-05-06 20:00 45.95951 22.26236 36971 ft 468 kts 147°
2026-05-06 20:01 45.90687 22.31672 36969 ft 470 kts 147°
2026-05-06 20:01 45.85360 22.37160 36977 ft 471 kts 147°
2026-05-06 20:02 45.80886 22.41762 36983 ft 471 kts 147°
2026-05-06 20:02 45.74682 22.48127 36976 ft 471 kts 147°
2026-05-06 20:03 45.69404 22.53673 36997 ft 472 kts 146°
2026-05-06 20:03 45.64163 22.59392 36997 ft 474 kts 145°
2026-05-06 20:04 45.58922 22.65125 37007 ft 474 kts 145°
2026-05-06 20:04 45.54551 22.69876 37004 ft 474 kts 145°
2026-05-06 20:05 45.49297 22.75558 37012 ft 474 kts 145°
2026-05-06 20:05 45.43984 22.81282 37023 ft 475 kts 145°
2026-05-06 20:06 45.38675 22.86990 37021 ft 475 kts 145°
2026-05-06 20:06 45.33417 22.92630 37020 ft 475 kts 146°
2026-05-06 20:07 45.28122 22.98296 37032 ft 475 kts 146°
2026-05-06 20:07 45.22745 23.04035 37021 ft 478 kts 145°
2026-05-06 20:08 45.17420 23.09706 37019 ft 478 kts 145°
2026-05-06 20:08 45.12116 23.15341 37017 ft 477 kts 145°
2026-05-06 20:09 45.06764 23.21015 37016 ft 477 kts 145°
2026-05-06 20:09 45.01427 23.26658 37004 ft 477 kts 146°
2026-05-06 20:10 44.96105 23.32272 37008 ft 477 kts 146°
2026-05-06 20:10 44.90751 23.37906 36997 ft 476 kts 146°
2026-05-06 20:11 44.85434 23.43489 36996 ft 476 kts 146°
2026-05-06 20:11 44.80108 23.49066 36992 ft 478 kts 145°
2026-05-06 20:12 44.74704 23.54713 36995 ft 479 kts 145°
2026-05-06 20:12 44.69329 23.60316 36987 ft 479 kts 145°
2026-05-06 20:13 44.63990 23.65870 36982 ft 478 kts 146°
2026-05-06 20:13 44.58535 23.71528 36994 ft 479 kts 145°
2026-05-06 20:14 44.53195 23.77055 36997 ft 480 kts 145°
2026-05-06 20:14 44.47788 23.82639 37006 ft 480 kts 145°
2026-05-06 20:15 44.42384 23.88206 37017 ft 480 kts 145°
2026-05-06 20:15 44.36942 23.93799 37016 ft 481 kts 145°
2026-05-06 20:16 44.31512 23.99367 37019 ft 481 kts 145°
2026-05-06 20:16 44.26101 24.04902 36984 ft 481 kts 145°
2026-05-06 20:17 44.20694 24.10421 36983 ft 481 kts 145°
2026-05-06 20:17 44.15261 24.15952 36971 ft 483 kts 145°
2026-05-06 20:18 44.10714 24.20572 36971 ft 483 kts 145°
2026-05-06 20:18 44.05289 24.26072 36963 ft 484 kts 145°
2026-05-06 20:19 43.99834 24.31590 36965 ft 484 kts 145°
2026-05-06 20:19 43.94333 24.37141 36963 ft 485 kts 145°
2026-05-06 20:20 43.88888 24.42623 36964 ft 485 kts 145°
2026-05-06 20:20 43.83309 24.48228 36950 ft 485 kts 145°
2026-05-06 20:21 43.77773 24.53775 36955 ft 484 kts 145°
2026-05-06 20:21 43.71932 24.58432 36963 ft 484 kts 154°
2026-05-06 20:22 43.65825 24.62636 36960 ft 484 kts 155°
2026-05-06 20:22 43.59754 24.66689 36968 ft 484 kts 156°
2026-05-06 20:23 43.53689 24.70734 36962 ft 483 kts 155°
2026-05-06 20:23 43.47641 24.74779 36952 ft 484 kts 155°
2026-05-06 20:24 43.41537 24.78863 36958 ft 484 kts 155°
2026-05-06 20:24 43.35418 24.82950 36968 ft 484 kts 155°
2026-05-06 20:25 43.29332 24.87006 36973 ft 483 kts 155°
2026-05-06 20:25 43.23273 24.91033 36986 ft 485 kts 155°
2026-05-06 20:26 43.17189 24.95067 36984 ft 486 kts 155°
2026-05-06 20:26 43.11459 24.99922 36989 ft 485 kts 140°
2026-05-06 20:27 43.06418 25.06073 36992 ft 486 kts 137°
2026-05-06 20:27 43.01527 25.12453 37003 ft 487 kts 136°
2026-05-06 20:28 42.96583 25.18936 37009 ft 488 kts 136°
2026-05-06 20:28 42.91666 25.25323 37009 ft 487 kts 136°
2026-05-06 20:29 42.86748 25.31666 37013 ft 487 kts 136°
2026-05-06 20:29 42.81792 25.38033 37019 ft 487 kts 136°
2026-05-06 20:30 42.74374 25.47540 37028 ft 487 kts 136°
2026-05-06 20:31 42.69442 25.53844 37036 ft 487 kts 136°
2026-05-06 20:31 42.65275 25.59160 37034 ft 488 kts 136°
2026-05-06 20:32 42.60322 25.65465 37026 ft 488 kts 136°
2026-05-06 20:32 42.55321 25.71816 37041 ft 488 kts 137°
2026-05-06 20:33 42.50364 25.78097 37043 ft 489 kts 136°
2026-05-06 20:33 42.45344 25.84443 37043 ft 490 kts 136°
2026-05-06 20:34 42.40344 25.90750 37038 ft 490 kts 136°
2026-05-06 20:34 42.35353 25.97029 37031 ft 490 kts 136°
2026-05-06 20:35 42.30318 26.03351 37032 ft 491 kts 136°
2026-05-06 20:35 42.25308 26.09627 37037 ft 491 kts 137°
2026-05-06 20:36 42.20301 26.15885 37038 ft 491 kts 137°
2026-05-06 20:36 42.15282 26.22144 37036 ft 492 kts 136°
2026-05-06 20:37 42.10254 26.28399 37031 ft 493 kts 136°
2026-05-06 20:37 42.05214 26.34652 37021 ft 493 kts 137°
2026-05-06 20:38 42.00085 26.40977 37040 ft 494 kts 137°
2026-05-06 20:38 41.94947 26.47290 37041 ft 496 kts 137°
2026-05-06 20:39 41.89857 26.53532 37052 ft 496 kts 137°
2026-05-06 20:39 41.85115 26.60248 37045 ft 494 kts 129°
2026-05-06 20:40 41.80680 26.67351 37048 ft 495 kts 128°
2026-05-06 20:40 41.76270 26.74463 37050 ft 496 kts 128°
2026-05-06 20:41 41.71854 26.81577 37058 ft 496 kts 128°
2026-05-06 20:41 41.67405 26.88730 37069 ft 496 kts 128°
2026-05-06 20:42 41.62887 26.95977 37062 ft 497 kts 128°
2026-05-06 20:42 41.58441 27.03092 37067 ft 497 kts 128°
2026-05-06 20:43 41.53867 27.10111 36686 ft 496 kts 132°
2026-05-06 20:43 41.51447 27.13441 35614 ft 504 kts 133°
2026-05-06 20:43 41.49777 27.15709 34896 ft 510 kts 133°
2026-05-06 20:43 41.46450 27.20217 33678 ft 514 kts 132°
2026-05-06 20:44 41.44757 27.22516 32985 ft 516 kts 132°
2026-05-06 20:44 41.42202 27.25988 32007 ft 518 kts 132°
2026-05-06 20:44 41.39642 27.29467 31012 ft 521 kts 132°
2026-05-06 20:44 41.37090 27.32934 29895 ft 525 kts 132°
2026-05-06 20:45 41.34543 27.36390 28986 ft 522 kts 132°
2026-05-06 20:45 41.31959 27.39894 27976 ft 521 kts 132°
2026-05-06 20:45 41.29468 27.43266 27744 ft 503 kts 132°
2026-05-06 20:45 41.27006 27.46593 27564 ft 485 kts 132°
2026-05-06 20:46 41.24696 27.49817 26968 ft 478 kts 127°
2026-05-06 20:46 41.22925 27.53456 26461 ft 462 kts 111°
2026-05-06 20:46 41.21661 27.57398 25983 ft 452 kts 107°
2026-05-06 20:46 41.20547 27.61259 25505 ft 444 kts 106°
2026-05-06 20:47 41.19460 27.65072 25023 ft 438 kts 106°
2026-05-06 20:47 41.18388 27.68820 24569 ft 431 kts 107°
2026-05-06 20:47 41.17310 27.72562 24102 ft 425 kts 107°
2026-05-06 20:47 41.16255 27.76211 23633 ft 421 kts 107°
2026-05-06 20:48 41.15209 27.79817 23153 ft 416 kts 107°
2026-05-06 20:48 41.14177 27.83356 22888 ft 404 kts 107°
2026-05-06 20:48 41.13175 27.86786 22525 ft 395 kts 107°
2026-05-06 20:48 41.12183 27.90184 22113 ft 388 kts 107°
2026-05-06 20:49 41.11215 27.93493 21699 ft 381 kts 107°
2026-05-06 20:49 41.10262 27.96747 21295 ft 376 kts 107°
2026-05-06 20:49 41.09310 27.99996 20883 ft 370 kts 107°
2026-05-06 20:49 41.08372 28.03190 20478 ft 364 kts 107°
2026-05-06 20:50 41.07460 28.06294 20087 ft 359 kts 107°
2026-05-06 20:50 41.06556 28.09366 19701 ft 354 kts 107°
2026-05-06 20:50 41.05665 28.12388 19315 ft 349 kts 107°
2026-05-06 20:50 41.04644 28.15289 18955 ft 347 kts 120°
2026-05-06 20:51 41.03018 28.17652 18451 ft 352 kts 143°
2026-05-06 20:51 41.00763 28.18995 17888 ft 353 kts 165°
2026-05-06 20:51 40.98367 28.19699 17502 ft 352 kts 169°
2026-05-06 20:51 40.95959 28.20299 17120 ft 351 kts 169°
2026-05-06 20:52 40.93585 28.20887 16745 ft 349 kts 169°
2026-05-06 20:52 40.91183 28.21492 16363 ft 346 kts 169°
2026-05-06 20:52 40.88785 28.22104 15985 ft 344 kts 169°
2026-05-06 20:52 40.86472 28.22699 15622 ft 342 kts 169°
2026-05-06 20:53 40.84121 28.23307 15246 ft 339 kts 169°
2026-05-06 20:53 40.81809 28.23906 14878 ft 337 kts 169°
2026-05-06 20:53 40.79518 28.24506 14521 ft 335 kts 167°
2026-05-06 20:53 40.77218 28.25524 14142 ft 332 kts 154°
2026-05-06 20:54 40.75204 28.26819 13775 ft 330 kts 152°
2026-05-06 20:54 40.73145 28.28227 13392 ft 328 kts 151°
2026-05-06 20:54 40.71151 28.29600 13045 ft 326 kts 150°
2026-05-06 20:54 40.69275 28.31308 12683 ft 321 kts 132°
2026-05-06 20:55 40.68095 28.33718 12437 ft 309 kts 105°
2026-05-06 20:55 40.67712 28.36473 12190 ft 306 kts 90°
2026-05-06 20:55 40.67629 28.39273 11834 ft 305 kts 87°
2026-05-06 20:55 40.67593 28.42067 11424 ft 303 kts 87°
2026-05-06 20:56 40.67553 28.44804 11210 ft 293 kts 87°
2026-05-06 20:56 40.67507 28.47448 10951 ft 285 kts 88°
2026-05-06 20:56 40.67475 28.49179 10753 ft 281 kts 88°
2026-05-06 20:56 40.67422 28.51768 10451 ft 276 kts 88°
2026-05-06 20:57 40.67369 28.54309 10151 ft 275 kts 88°
2026-05-06 20:57 40.67312 28.56977 9830 ft 274 kts 88°
2026-05-06 20:57 40.67257 28.59435 9535 ft 273 kts 88°
2026-05-06 20:57 40.67203 28.61849 9253 ft 272 kts 88°
2026-05-06 20:58 40.67285 28.64321 8958 ft 267 kts 75°
2026-05-06 20:58 40.67775 28.66696 8554 ft 263 kts 67°
2026-05-06 20:58 40.68373 28.68958 8247 ft 262 kts 66°
2026-05-06 20:58 40.68989 28.71217 7959 ft 262 kts 66°
2026-05-06 20:59 40.69605 28.73488 7659 ft 261 kts 66°
2026-05-06 20:59 40.70211 28.75741 7368 ft 261 kts 66°
2026-05-06 20:59 40.70814 28.77994 7078 ft 260 kts 66°
2026-05-06 20:59 40.71413 28.80242 6775 ft 260 kts 66°
2026-05-06 21:00 40.71994 28.82426 6494 ft 259 kts 66°
2026-05-06 21:00 40.72603 28.84722 6191 ft 259 kts 66°
2026-05-06 21:00 40.73200 28.86973 5899 ft 259 kts 66°
2026-05-06 21:00 40.73794 28.89215 5607 ft 258 kts 67°
2026-05-06 21:01 40.74385 28.91452 5325 ft 258 kts 67°
2026-05-06 21:01 40.74976 28.93687 5033 ft 258 kts 68°
2026-05-06 21:01 40.75572 28.95946 4731 ft 258 kts 68°
2026-05-06 21:01 40.76154 28.98153 4444 ft 257 kts 68°
2026-05-06 21:02 40.76742 29.00372 4143 ft 255 kts 67°
2026-05-06 21:02 40.77510 29.02447 4002 ft 249 kts 57°
2026-05-06 21:02 40.78457 29.04482 4028 ft 226 kts 54°
2026-05-06 21:02 40.79238 29.06101 4005 ft 216 kts 54°
2026-05-06 21:03 40.80050 29.07766 3994 ft 215 kts 53°
2026-05-06 21:03 40.80830 29.09495 3831 ft 216 kts 60°
2026-05-06 21:03 40.81489 29.11279 3512 ft 215 kts 62°
2026-05-06 21:03 40.82123 29.13003 3204 ft 202 kts 62°
2026-05-06 21:04 40.82719 29.14608 2898 ft 188 kts 62°
2026-05-06 21:04 40.83270 29.16102 2652 ft 172 kts 63°
2026-05-06 21:04 40.83779 29.17483 2439 ft 164 kts 63°
2026-05-06 21:04 40.84272 29.18818 2224 ft 163 kts 63°
2026-05-06 21:05 40.84774 29.20182 1996 ft 163 kts 63°
2026-05-06 21:05 40.85263 29.21513 1772 ft 152 kts 63°
2026-05-06 21:05 40.85707 29.22719 1561 ft 140 kts 62°
2026-05-06 21:05 40.86127 29.23861 1385 ft 136 kts 63°
2026-05-06 21:06 40.86409 29.24627 1274 ft 135 kts 63°
2026-05-06 21:06 40.86711 29.25445 1125 ft 133 kts 63°
2026-05-06 21:06 40.87085 29.26464 954 ft 130 kts 64°
2026-05-06 21:06 40.87635 29.27958 697 ft 126 kts 64°
2026-05-06 21:07 40.88045 29.29082 525 ft 125 kts 63°
2026-05-06 21:07 40.88402 29.30039 369 ft 124 kts 63°
2026-05-06 21:07 40.88781 29.31051 294 ft 106 kts 65°
2026-05-06 21:07 40.89026 29.31720 305 ft 63 kts 64°
2026-05-06 21:08 40.89223 29.32259 306 ft 51 kts 60°
2026-05-06 21:08 40.89387 29.32448 310 ft 27 kts 32°
2026-05-06 21:08 40.89521 29.32569 310 ft 9 kts 345°
2026-05-06 21:08 40.89520 29.32501 310 ft 13 kts 236°
2026-05-06 21:09 40.89502 29.32381 311 ft 11 kts 299°
2026-05-06 21:09 40.89571 29.32351 311 ft 11 kts
2026-05-06 21:09 40.89647 29.32314 311 ft 12 kts 333°
2026-05-06 21:09 40.89730 29.32259 312 ft 14 kts 334°
2026-05-06 21:10 40.89822 29.32200 313 ft 16 kts 334°
2026-05-06 21:10 40.89913 29.32140 317 ft 14 kts 334°
2026-05-06 21:10 40.89991 29.32089 322 ft 11 kts 334°
2026-05-06 21:10 40.90065 29.32016 322 ft 14 kts 285°
2026-05-06 21:11 40.90020 29.31867 320 ft 21 kts 244°
2026-05-06 21:11 40.89952 29.31680 323 ft 23 kts 244°
2026-05-06 21:11 40.89879 29.31484 322 ft 24 kts 244°
2026-05-06 21:11 40.89805 29.31283 323 ft 25 kts 244°
2026-05-06 21:12 40.89781 29.31162 323 ft 12 kts 303°
2026-05-06 21:12 40.89863 29.31099 322 ft 17 kts 334°
2026-05-06 21:12 40.89988 29.31021 322 ft 21 kts 335°
2026-05-06 21:12 40.90120 29.30934 324 ft 22 kts 334°
2026-05-06 21:13 40.90235 29.30883 324 ft 13 kts 30°
2026-05-06 21:13 40.90282 29.30991 323 ft 14 kts 64°
2026-05-06 21:13 40.90327 29.31113 323 ft 15 kts 64°
2026-05-06 21:13 40.90375 29.31243 322 ft 16 kts 64°
2026-05-06 21:14 40.90425 29.31379 322 ft 17 kts 64°
2026-05-06 21:14 40.90469 29.31486 323 ft 9 kts 38°
2026-05-06 21:14 40.90517 29.31470 323 ft 4 kts 333°
2026-05-06 21:14 40.90531 29.31461 322 ft 3 kts 333°
2026-05-06 21:15 40.90534 29.31459 322 ft 0 kts 333°